Simultaneous Nadir Overpasses (SNOs) Predictions

Prediction of SNOs between FY3D and NOAA-19 Satellite Orbit:

Table of predicted SNOs for the next 14.0 days since TLE Epoch: 12/24/2022
Index Date (FY3D) Time (FY3D) Lat,Lon (FY3D) SZA (FY3D ) Date (NOAA-19) Time (NOAA-19) Lat,Lon (NOAA-19) SZA (NOAA-19 ) Distance(km) Time Diff (sec)
1 01/01/2023 08:58:53 -76.94,-147.11 79.81 01/01/2023 08:57:39 -76.93,-147.22 79.79 2.71 74
2 01/01/2023 09:49:40 76.97, 20.06 100.24 01/01/2023 09:48:32 76.97, 20.20 100.24 3.62 68
3 01/01/2023 10:40:25 -76.95,-172.54 79.80 01/01/2023 10:39:38 -76.96,-172.61 79.78 1.82 47
4 01/01/2023 11:31:12 76.98, -5.37 100.24 01/01/2023 11:30:32 76.95, -5.38 100.22 4.16 40
5 01/01/2023 12:21:57 -76.96, 162.02 79.79 01/01/2023 12:21:37 -76.98, 161.99 79.77 1.84 20
6 01/01/2023 13:12:44 77.00, -30.81 100.25 01/01/2023 13:12:31 76.97, -30.77 100.23 3.14 13
7 01/01/2023 14:03:29 -76.98, 136.59 79.78 01/01/2023 14:03:36 -77.00, 136.59 79.76 2.76 7
8 01/01/2023 14:54:16 77.01, -56.24 100.26 01/01/2023 14:54:30 76.99, -56.17 100.24 2.60 14
9 01/01/2023 15:45:01 -76.99, 111.16 79.77 01/01/2023 15:45:36 -76.98, 111.01 79.78 3.74 35
10 01/01/2023 16:35:48 77.02, -81.67 100.27 01/01/2023 16:36:29 77.01, -81.56 100.25 2.86 41
11 01/01/2023 17:26:33 -77.00, 85.73 79.76 01/01/2023 17:27:35 -77.00, 85.62 79.76 2.77 62
12 01/01/2023 18:17:20 77.03,-107.11 100.28 01/01/2023 18:18:28 77.04,-106.96 100.26 3.75 68



Historial Predications of SNOs between FY3D and NOAA-19
